Home > Weather > Koudougou > Past weeks

Flag for Burkina Faso Past Weather in Koudougou, Burkina Faso — Yesterday and Last 2 Weeks

Now
81 °F

Light rain. Scattered clouds.


Feels Like: 86 °F
Forecast: N/A
Wind: 3 mph from Northwest

Location: Ouagadougou Airport

Current Time: Jul 24, 2016 at 3:00:22 PM

Latest Report: Jul 24, 2016 at 2:00 PM


Visibility: N/A

Pressure: 29.92 "Hg

Humidity: 84%

Dew Point: 75 °F

Location of KoudougouLocation

Past Weather in Koudougou — Graph

°F

Koudougou Temperature Yesterday

Maximum temperature yesterday: 84 °F (at 12:00 PM)
Minimum temperature yesterday: 77 °F (at 3:00 AM)
Average temperature yesterday: 79 °F

High & Low Weather Summary for the Past Weeks

 TemperatureHumidityPressure
High95 °F (Jul 14, 3:00 PM)100% (Jul 12, 5:00 AM)30.23 "Hg (Jul 12, 5:00 AM)
Low70 °F (Jul 20, 6:00 AM)49% (Jul 11, 1:00 PM)29.83 "Hg (Jul 9, 5:00 PM)
Average81 °F80%29.92 "Hg
* Reported Jul 9 2:00 PM — Jul 24 2:00 PM, Koudougou, Weather by CustomWeather, © 2016

Note: Actual official high and low records may vary slightly from our data, if they occured in-between our weather recording intervals... More about our weather records

Advertising

Koudougou Weather History for the Previous 24 Hours

Scroll right to see more
 ConditionsComfort  
Time TempWeatherWind HumidityBarometerVisibility
2:00 PM
Sun, Jul 24
81 °FLight rain. Scattered clouds.3 mph84%29.92 "HgN/A
1:00 PM84 °FScattered clouds.8 mph70%29.92 "HgN/A
12:00 PM81 °FScattered clouds.6 mph79%29.95 "HgN/A
11:00 AM82 °FScattered clouds.7 mph74%29.98 "HgN/A
10:00 AM81 °FScattered clouds.8 mph79%29.98 "HgN/A
9:00 AM81 °FScattered clouds.9 mph74%29.95 "HgN/A
8:00 AM77 °FScattered clouds.10 mph89%29.95 "HgN/A
7:00 AM75 °FPartly sunny.9 mph94%29.95 "HgN/A
5:00 AM75 °FPassing clouds.7 mph100%29.92 "HgN/A
4:00 AM75 °FClear.3 mph100%29.95 "Hg10 mi
2:00 AM77 °FPassing clouds.5 mph100%29.95 "HgN/A
1:00 AM77 °FPassing clouds.5 mph100%29.95 "HgN/A
12:00 AM77 °FPassing clouds.2 mph100%29.95 "HgN/A
11:00 PM
Sat, Jul 23
77 °FPassing clouds.3 mph100%29.98 "HgN/A
10:00 PM79 °FPassing clouds.3 mph89%29.95 "HgN/A
9:00 PM79 °FThunderstorms. Passing clouds.2 mph89%29.95 "HgN/A
8:00 PM79 °FThunderstorms. Passing clouds.3 mph89%29.92 "HgN/A
7:00 PM79 °FThunderstorms. Passing clouds.6 mph89%29.89 "HgN/A
6:00 PM82 °FThunderstorms. Passing clouds.No wind79%29.86 "HgN/A
5:00 PM82 °FThunderstorms. Passing clouds.3 mph74%29.86 "HgN/A
4:00 PM79 °FThunderstorms. Scattered clouds.2 mph79%29.89 "Hg5 mi
3:00 PM79 °FThunderstorms. Scattered clouds.1 mph89%29.92 "Hg5 mi
Weather by CustomWeather, © 2016

See weather overviewHow to use our weather pages